Preview of NWS' New Version of Forecast
This preview is not operational and should not be used for support decisions.

Regional Weather Roundup (RWR)

Issued by National Weather Service (NWS)

                            
000
ASUS45 KBOU 181610
RWRCO 

WEATHER ROUNDUP FOR COLORADO
NATIONAL WEATHER SERVICE DENVER/BOULDER CO
1000 AM MDT THU APR 18 2019

NOTE: "FAIR" INDICATES FEW OR NO CLOUDS BELOW 12000 FEET WITH NO
SIGNIFICANT WEATHER AND/OR OBSTRUCTIONS TO VISIBILITY.

COZ001>005-013-030-031-181700-
...NORTHWEST COLORADO...
  
CITY           SKY/WX    TMP DP  RH WIND       PRES   REMARKS
CRAIG          CLOUDY    49  32  52 NW10G22   30.33S                  
HAYDEN         CLOUDY    43  30  60 NW14      30.34R                  
MEEKER         FAIR      50  26  39 NW14G23   30.33S                  
RANGELY        FAIR      49  32  51 CALM      30.33S                  
RABBIT EARS PA SNOW     N/A N/A N/A W10G23    30.32S VSB<1/4          
STEAMBOAT SPGS PTSUNNY   42  29  62 W12       30.31R                  
WALDEN         PTSUNNY   37  25  60 N20       30.29R                  
$$

COZ006>008-011-181700-
...WEST CENTRAL VALLEYS...
  
CITY           SKY/WX    TMP DP  RH WIND       PRES   REMARKS
GRAND JUNCTION FAIR      53  30  41 VRB3      30.32S                  
MONTROSE       FAIR      52  26  36 CALM      30.36S                  
EAGLE          CLOUDY    48  25  40 S7        30.32S                  
RIFLE          FAIR      54  30  40 W10       30.31R                  
DELTA          FAIR      53  29  39 CALM      30.34S                  
NUCLA          FAIR      52  25  35 E5        30.35S                  
$$

COZ017>023-064>068-181700-
...SOUTHWEST COLORADO...
  
CITY           SKY/WX    TMP DP  RH WIND       PRES   REMARKS
DURANGO        FAIR      53  21  28 VRB3      30.23S                  
CORTEZ         FAIR      58  23  26 NW12G22   30.26R                  
PAGOSA SPRINGS FAIR      53  12  19 SW3       30.25R                  
TELLURIDE      FAIR      39  21  48 CALM      30.39S                  
WOLF CREEK PAS FAIR      30  10  43 NW13G18   30.42R WCI  20          
$$

COZ009-010-012-014-032>034-037-058>063-181700-
...CENTRAL COLORADO...
  
CITY           SKY/WX    TMP DP  RH WIND       PRES   REMARKS
ASPEN          PTSUNNY   46  25  43 N9        30.32S                  
BUENA VISTA    FAIR      49  15  26 NW25G36   30.22F                  
COPPER MTN     CLOUDY    25  21  86 MISG      30.33R                  
BERTHOUD PASS  CLOUDY    18   7  62 NW41G51   30.24R WCI  -5          
COTTONWOOD PAS FAIR      41  10  28 N5        30.26F                  
GUNNISON       FAIR      45  20  36 SW12G23   30.32S                  
GRANBY         CLOUDY    38  27  63 W13G18    30.28R                  
KREMMLING      FAIR      45  27  49 NW18      30.30S                  
LEADVILLE      CLOUDY    29  21  72 NW10      30.31R WCI  20          
MONARCH PASS   FAIR      27  16  63 W28G37    30.43S WCI  11          
SALIDA         FAIR      50  16  26 CALM      30.30F                  
SUNLIGHT       CLOUDY    28  21  74 NW6       30.43R WCI  22          
WILKERSON PASS FAIR      32  16  51 N16G35    30.29S WCI  21          
$$

COZ069>075-181700-
...SAN LUIS VALLEY/SANGRE DE CRISTO MOUNTAINS...
  
CITY           SKY/WX    TMP DP  RH WIND       PRES   REMARKS
ALAMOSA        FAIR      50  12  21 N17G29    30.25R                  
DEL NORTE      FAIR      50  14  23 N14       30.26F                  
LA VETA PASS   NOT AVBL                                               
SAGUACHE       FAIR      46  18  31 NW9G25    30.26S                  
$$

COZ035-036-038>040-181700-
...NORTHERN COLORADO FRONT RANGE...
  
CITY           SKY/WX    TMP DP  RH WIND       PRES   REMARKS
DENVER INTL AP PTSUNNY   44  37  76 N15       30.23R                  
AURORA         PTSUNNY   44  37  77 N14       30.22R                  
FRONT RANGE AP CLOUDY    45  39  81 NE15G22   30.23R                  
ERIE MUNI ARPT CLOUDY    45  34  65 NE9       30.29R                  
BOULDER MUN AP CLOUDY    45  36  70 E7        30.23R                  
CENTENNIAL     PTSUNNY   43  34  70 NE14G22   30.23R                  
BROOMFIELD     PTSUNNY   45  37  76 E9        30.24R                  
FORT COLLINS   PTSUNNY   51  28  41 N24G32    30.21S                  
LONGMONT       FAIR      51  37  58 SE3       30.24S                  
$$

COZ041-046-047-076>085-087-088-181700-
...PIKES PEAK/PALMER DIVIDE AND SOUTHERN FOOTHILLS...
  
CITY           SKY/WX    TMP DP  RH WIND       PRES   REMARKS
COLO. SPRINGS  PTSUNNY   48  32  53 CALM      30.20R                  
A. F. ACADEMY  PTSUNNY   44  31  58 W3        30.17S                  
SCHRIEVER AFB  NOT AVBL                                               
CHEYENNE MTN   PTSUNNY   43  34  70 NE3       30.15R                  
ELLICOTT         N/A    N/A N/A N/A VRB3      30.19R                  
FALCON         CLOUDY    43  32  65 E14G21    30.22R                  
FORT CARSON    PTSUNNY   49  31  51 NE6       30.19R                  
LIMON          CLOUDY    39  36  89 N23G30    30.22R                  
MONUMENT HILL  PTSUNNY   41  32  70 NE13G21   30.23R                  
CANON CITY     FAIR      55  32  41 S5        30.15F                  
WALSENBURG     NOT AVBL                                               
TRINIDAD       FAIR      50  34  54 VRB5      30.20F                  
$$

COZ042>045-048>051-090-091-181700-
...NORTHEAST COLORADO...
  
CITY           SKY/WX    TMP DP  RH WIND       PRES   REMARKS
GREELEY ARPT   FAIR      49  35  58 N13       30.22S                  
AKRON          FAIR      48  32  53 N29G41    30.15F                  
BURLINGTON     CLOUDY    50  34  54 NW24G33   30.14R                  
WRAY           FAIR      52  32  46 NW33G40   30.12R                  
YUMA           NOT AVBL                                               
STERLING       FAIR      50  37  62 NW26G33   30.14F                  
HOLYOKE        FAIR      54  34  47 NW23G39   30.11S                  
FORT MORGAN      N/A     47  31  52 N25G33    30.20F                  
$$

COZ086-089-092>099-181700-
...SOUTHEAST COLORADO...
  
CITY           SKY/WX    TMP DP  RH WIND       PRES   REMARKS
PUEBLO         FAIR      55  38  52 S6        30.16F                  
LA JUNTA       PTSUNNY   56  30  37 N12G20    30.18S                  
LAMAR          FAIR      57  32  38 N23G35    30.15R                  
SPRINGFIELD      N/A     53  33  46 N25G38    30.15R                  
$$